2022 WR11
ephemeris date magn radius delta ra dec elong phase
Today18 Oct 202532.01.939 AU2.880 AU12h37m-01°00'15.7°8.0°
2022 WR11 - 2025-10-18
astro.vanbuitenen.nl


 
-1 year
-1 month
-1 day
Now
+1 day
+1 month
+1 year

The interactive orbit chart above shows the body's path through the solar system and its position at the given date. Green and blue lines are shown perpendicular to the ecliptic plane: Green if the path is above the ecliptic plane, blue if it is below. (Left-click and drag to rotate the view; Right-click and drag to move the view; Use scroll wheel to zoom in our out.)

The orbital elements of 2022 WR11 are:

            e (Eccentricity)                : 0.5772918
            a (Semimajor axis)              : 1.4554446
            i (Inclination)                 : 4.56002
            Ω (Longitude of ascending node) : 67.22305
            ω (Argument of perihelion)      : 263.83163
            M (Mean anomaly)                : 168.70898
            Epoch                           : 2025 May 05

            L (Longitude of perihelion)     : 151.03524
            B (Latitude of perihelion)      : -4.53356
            P (Orbital period in years)     : 1.76            
        

The light curve chart below shows the estimated development of the minor planet's magnitude.


The all-sky chart below shows the path of the minor planet over the same period as the light curve. The current position is marked yellow.





The following chart shows the path of the minor planet in the next few days. The field of view is optimized for (~10x50) binoculars and finderscopes.




Ephemerides:
Date       Time       RA (2000)    DEC (2000)    delta   radius  elong  phase   PA    magn
2025-10-18 00:00 UT   12 37 45.1   -01 00 55     2.880    1.939   15.7    8.0   303   32.0 
2025-10-18 06:24 UT   12 38 15.3   -01 04 13     2.878    1.938   15.8    8.1   303   32.0 
2025-10-19 00:00 UT   12 39 38.7   -01 13 20     2.871    1.934   16.2    8.2   303   32.0 
2025-10-20 00:00 UT   12 41 32.7   -01 25 46     2.862    1.929   16.6    8.5   302   32.0 
2025-10-21 00:00 UT   12 43 27.1   -01 38 13     2.853    1.924   17.1    8.7   302   32.0 
2025-10-22 00:00 UT   12 45 22.0   -01 50 42     2.844    1.919   17.6    9.0   302   32.0 
2025-10-23 00:00 UT   12 47 17.3   -02 03 12     2.835    1.913   18.0    9.3   302   32.0 
2025-10-24 00:00 UT   12 49 13.1   -02 15 44     2.826    1.908   18.5    9.5   301   32.0 
2025-10-25 00:00 UT   12 51 09.3   -02 28 17     2.816    1.903   18.9    9.8   301   32.0 
2025-10-26 00:00 UT   12 53 06.1   -02 40 51     2.806    1.898   19.4   10.0   301   32.0 
2025-10-27 00:00 UT   12 55 03.3   -02 53 27     2.797    1.892   19.9   10.3   300   32.0 
2025-10-28 00:00 UT   12 57 01.0   -03 06 04     2.787    1.887   20.3   10.5   300   32.0 
2025-10-29 00:00 UT   12 58 59.2   -03 18 42     2.777    1.881   20.8   10.8   300   32.0 
2025-10-30 00:00 UT   13 00 57.9   -03 31 21     2.767    1.876   21.2   11.1   300   32.0 
2025-10-31 00:00 UT   13 02 57.1   -03 44 01     2.756    1.870   21.7   11.3   299   32.0 
2025-11-01 00:00 UT   13 04 56.9   -03 56 43     2.746    1.865   22.1   11.6   299   32.0 
2025-11-02 00:00 UT   13 06 57.2   -04 09 26     2.736    1.859   22.6   11.8   299   32.0 
2025-11-03 00:00 UT   13 08 58.0   -04 22 09     2.725    1.853   23.1   12.1   299   31.9 


    Terminology:
            
    delta:  distance between minor planet and earth in AU
    radius: distance between minor planet and sun in AU
    magn:   magnitude (brightness) estimate    
    ra:     right ascension in hours (24h = 360deg)
    dec:    declination in degrees
    elong:  elongation in degrees (angle sun-earth-minor planet)    
    phase:  phase angle in degrees (angle sun-minor planet-earth)        
    AU:     Astronomical Unit (mean distance between earth and sun: 149597870.7 km
    

Orbital elements provided by the MPC (Minor Planet Center).
Calculations by a modified version of AAPlus, a C# implementation of the AA+ project by PJ Naughter from the algorithms presented in the book "Astronomical Algorithms" by Jean Meeus.
NGC2000 dso catalog and star labels from VizieR as provided by the Strasbourg astronomical Data Center.
Tycho2 catalog from the ESO archive.